[[{"header":{"parameterUnit":"m.s-1","parameterCategory":1,"la1":30.2991,"la2":30.254,"lo1":-89.0895,"lo2":-89.0444,"dy":0.0017,"dx":0.0017,"nx":28,"ny":28,"refTime":"2024-07-06T03:00:00:Z","depth":0,"parameterNumber":2,"parameterNumberName":"U-component_of_WINDS"},"data":[0,0,0,0,0,0,0,0,0,0,0,0,0,0,0,0,0,0,0,0,0,0,0,0,0,0,0,0,0,0,0,0,0,0,0,0,0,0,0,0,0,0,0,0,0,0,0,0,0,0,0,0,0,0,0,0,0,0,0.6909,0.6911,0,0.7102,0.7104,0.7106,0.7184,0.7184,0.7184,0.7183,0.7383,0.7389,0.7395,0,0,0,0,0,0,0,0,0,0,0,0,0,0.661,0.6615,0.6909,0.6911,0.6914,0.7101,0.7104,0.7107,0.7185,0.7184,0.7183,0.7183,0.7381,0.7388,0.7395,0,0,0,0,0,0,0,0,0,0,0,0,0,0.6765,0.6616,0.6909,0.6975,0.6983,0.7101,0.7104,0.7108,0.7185,0.7184,0.7183,0.7183,0.7379,0.7387,0.7396,0.7463,0,0,0.7422,0.7426,0,0,0,0,0,0,0,0,0.6756,0.6776,0.6963,0.6971,0.698,0.7118,0.7072,0.7227,0.7185,0.7108,0.7183,0.7182,0.7296,0.7311,0.7349,0.7472,0.7481,0.7423,0.7428,0.7432,0.7435,0,0,0,0,0,0,0,0.6745,0.6768,0.6985,0.6966,0.6976,0.6996,0.7017,0.7102,0.7204,0.7115,0.7121,0.7143,0.73,0.734,0.7354,0.7484,0.7423,0.7431,0.7436,0.7439,0.7671,0.7672,0,0,0,0,0,0,0.6723,0.6758,0.6979,0.6991,0.6864,0.7002,0.7026,0.7075,0.7203,0.7222,0.7143,0.7145,0.7326,0.7344,0.7362,0.7448,0.7432,0.744,0.7445,0.767,0.7671,0.7672,0,0,0,0,0,0,0.6716,0.6742,0.6971,0.6876,0.6907,0.7008,0.7062,0.7079,0.7119,0.7224,0.7243,0.7165,0.7326,0.7349,0.7437,0.7456,0.7444,0.7452,0.7669,0.767,0.7672,0.7621,0,0,0,0,0,0,0.6707,0.6739,0.6765,0.6876,0.6912,0.7043,0.7063,0.7083,0.7133,0.7138,0.725,0.7268,0.7328,0.7423,0.7445,0.7468,0.7459,0.7667,0.7669,0.7671,0.7621,0.7621,0.762,0,0,0,0,0,0.6696,0.6744,0.6766,0.6792,0.6947,0.7044,0.7064,0.7131,0.7135,0.7162,0.7229,0.7264,0.745,0.7432,0.7457,0.7482,0.7667,0.7669,0.7671,0.7622,0.7621,0.762,0,0,0,0,0,0,0.6634,0.676,0.6786,0.6871,0.6946,0.7057,0.7093,0.7128,0.7204,0.7206,0.7287,0.7311,0.7392,0.7446,0.7423,0.7553,0.7561,0.7568,0.7515,0.7515,0.7514,0.75,0.7466,0,0,0,0,0,0.6629,0.6697,0.6804,0.6869,0.6905,0.6992,0.7037,0.7082,0.7163,0.7196,0.727,0.7348,0.7424,0.7472,0.7548,0.7629,0.7655,0.7659,0.7658,0.7657,0.7663,0.7709,0.7712,0.7679,0.7679,0.7679,0,0,0.6622,0.6699,0.6737,0.6858,0.6921,0.699,0.7018,0.709,0.7142,0.7207,0.7294,0.735,0.7443,0.7527,0.7568,0.7575,0.7677,0.766,0.7658,0.7665,0.7712,0.7715,0.7717,0.7681,0.7681,0.768,0,0,0.6643,0.6708,0.6769,0.6832,0.6927,0.6984,0.6999,0.7104,0.7144,0.7232,0.7282,0.7345,0.7474,0.7538,0.7587,0.7631,0.7666,0.7654,0.765,0.7694,0.7697,0.7699,0.7715,0.7719,0.7659,0.7659,0.7659,0,0.6622,0.6727,0.6796,0.6865,0.6916,0.6977,0.7039,0.7097,0.7212,0.7246,0.7252,0.7415,0.7482,0.7581,0.7591,0.7629,0.7649,0.7642,0.769,0.7694,0.7697,0.7713,0.7719,0.7656,0.7657,0.7657,0.7657,0,0.6696,0.6768,0.6806,0.6914,0.697,0.7035,0.7114,0.7162,0.7202,0.7259,0.7347,0.7429,0.7522,0.7549,0.7589,0.7654,0.7655,0.7675,0.7684,0.7697,0.7713,0.772,0.7653,0.7654,0.7655,0.7655,0,0,0.6684,0.6829,0.6842,0.6891,0.7,0.7057,0.7125,0.7215,0.7254,0.7331,0.739,0.7497,0.7516,0.7571,0.7619,0.7658,0.7687,0.7673,0.7676,0.7672,0.7763,0.7748,0.7754,0.771,0.7712,0.7713,0.7755,0,0.672,0.6843,0.6907,0.7002,0.7069,0.7127,0.7186,0.7259,0.7314,0.7379,0.744,0.7515,0.7533,0.7567,0.7608,0.7674,0.7706,0.7672,0.7766,0.7769,0.7741,0.7762,0.7747,0.7783,0.7762,0.7763,0.7764,0,0.6779,0.6854,0.6956,0.7056,0.7086,0.7138,0.7225,0.7287,0.7371,0.7408,0.7469,0.7515,0.7589,0.7592,0.7695,0.767,0.7712,0.7751,0.7754,0.7766,0.7767,0.7775,0.7797,0.7802,0.7775,0.7774,0.7773,0,0.6759,0.6886,0.6964,0.7004,0.7123,0.7158,0.7209,0.7292,0.7342,0.7418,0.7451,0.7535,0.7581,0.7646,0.7714,0.771,0.7809,0.7818,0.7843,0.7841,0.7862,0.7859,0.789,0.7888,0.7888,0.7888,0.7888,0,0.6793,0.6853,0.6956,0.7004,0.7073,0.7145,0.7212,0.7268,0.7341,0.74,0.7456,0.7511,0.7597,0.7663,0.7717,0.7793,0.7814,0.7846,0.786,0.7841,0.7837,0.7871,0.787,0.7889,0.7889,0.7889,0.7888,0,0.6784,0.6855,0.6943,0.7048,0.7075,0.7121,0.7211,0.726,0.7317,0.7391,0.7413,0.7503,0.7583,0.7657,0.7764,0.78,0.7877,0.7895,0.7849,0.7856,0.7876,0.7873,0.793,0.7941,0.793,0.793,0.793,0,0.68,0.6848,0.6957,0.7,0.705,0.7119,0.717,0.7243,0.7293,0.7392,0.7428,0.7512,0.7583,0.7709,0.7784,0.7866,0.7886,0.79,0.7899,0.7878,0.7886,0.7882,0.7888,0.7899,0.7899,0.7899,0.7898,0,0.6822,0.6855,0.6925,0.7008,0.7066,0.7135,0.7206,0.7238,0.7324,0.7378,0.746,0.7515,0.7623,0.7706,0.7796,0.785,0.7889,0.7898,0.7908,0.789,0.7861,0.7877,0.7846,0.7897,0.7897,0.7897,0.7897,0.7897,0.6827,0.6871,0.6955,0.7031,0.7091,0.7156,0.7206,0.7269,0.7338,0.7431,0.747,0.7553,0.7636,0.7761,0.7814,0.788,0.7888,0.7903,0.7906,0.7909,0.7905,0.785,0.7897,0.7897,0.7897,0.7897,0.7897,0,0.6852,0.6908,0.6977,0.7074,0.7133,0.7163,0.7243,0.7291,0.7363,0.7436,0.7504,0.7598,0.7678,0.7759,0.7843,0.7881,0.7901,0.7901,0.7899,0.791,0.7893,0.7876,0.7883,0.7883,0.7883,0.7883,0.7883,0.7883,0.6872,0.6948,0.6991,0.7098,0.7154,0.7235,0.7277,0.7337,0.7396,0.7497,0.7564,0.7615,0.7692,0.7782,0.7857,0.7879,0.7907,0.7902,0.7929,0.7911,0.7912,0.7912,0.7897,0.7908,0.7908,0.7941,0.7941,0.7942]},{"header":{"parameterUnit":"m.s-1","parameterCategory":1,"la1":30.2991,"la2":30.254,"lo1":-89.0895,"lo2":-89.0444,"dy":0.0017,"dx":0.0017,"nx":28,"ny":28,"refTime":"2024-07-06T03:00:00:Z","depth":0,"parameterNumber":3,"parameterNumberName":"V-component_of_WINDS"},"data":[0,0,0,0,0,0,0,0,0,0,0,0,0,0,0,0,0,0,0,0,0,0,0,0,0,0,0,0,0,0,0,0,0,0,0,0,0,0,0,0,0,0,0,0,0,0,0,0,0,0,0,0,0,0,0,0,0,0,3.6487,3.6487,0,3.6475,3.6475,3.6475,3.6436,3.6435,3.6434,3.6434,3.6422,3.6423,3.6423,0,0,0,0,0,0,0,0,0,0,0,0,0,3.6477,3.6478,3.6487,3.6487,3.6487,3.6475,3.6475,3.6475,3.6436,3.6435,3.6434,3.6433,3.6422,3.6423,3.6423,0,0,0,0,0,0,0,0,0,0,0,0,0,3.6475,3.6478,3.6487,3.6466,3.6464,3.6475,3.6475,3.6475,3.6437,3.6435,3.6434,3.6433,3.6422,3.6423,3.6423,3.6454,0,0,3.6426,3.6426,0,0,0,0,0,0,0,0,3.6475,3.6475,3.6469,3.6468,3.6465,3.6456,3.6467,3.6468,3.6437,3.6447,3.6434,3.6432,3.6435,3.6434,3.6435,3.6453,3.6453,3.6426,3.6426,3.6427,3.6427,0,0,0,0,0,0,0,3.6475,3.6476,3.6482,3.6469,3.6467,3.6458,3.6456,3.6467,3.6448,3.6446,3.6443,3.6442,3.6433,3.6434,3.6434,3.6453,3.6426,3.6426,3.6427,3.6427,3.6496,3.6497,0,0,0,0,0,0,3.6478,3.6476,3.6483,3.6482,3.6467,3.6459,3.6457,3.646,3.6448,3.6445,3.6443,3.6441,3.6434,3.6433,3.6434,3.6469,3.6427,3.6427,3.6428,3.6495,3.6496,3.6498,0,0,0,0,0,0,3.6478,3.6479,3.6483,3.6478,3.6478,3.646,3.6464,3.6461,3.6461,3.6446,3.6442,3.6448,3.6432,3.6433,3.6449,3.6468,3.6428,3.6428,3.6493,3.6495,3.6497,3.6539,0,0,0,0,0,0,3.6478,3.648,3.6491,3.6479,3.6478,3.6499,3.6465,3.6461,3.6463,3.6459,3.6449,3.6446,3.6431,3.6448,3.645,3.6468,3.6429,3.6491,3.6494,3.6497,3.6536,3.6542,3.6548,0,0,0,0,0,3.6478,3.6503,3.6492,3.6493,3.6492,3.65,3.65,3.6482,3.6464,3.6476,3.6466,3.6447,3.6466,3.645,3.6452,3.6471,3.649,3.6493,3.6496,3.6533,3.6541,3.6548,0,0,0,0,0,0,3.6518,3.6501,3.6488,3.651,3.6507,3.6493,3.6507,3.6491,3.6492,3.6488,3.6467,3.6465,3.6484,3.6479,3.6462,3.65,3.6475,3.6478,3.6502,3.651,3.6515,3.6516,3.6429,0,0,0,0,0,3.6529,3.6537,3.6522,3.6543,3.6542,3.6525,3.6527,3.6514,3.651,3.6508,3.6499,3.6496,3.6501,3.6505,3.6509,3.6535,3.6533,3.6549,3.6555,3.656,3.6563,3.6577,3.6584,3.6508,3.6508,3.6508,0,0,3.6553,3.6545,3.6551,3.6551,3.6546,3.6555,3.6524,3.6534,3.654,3.651,3.6525,3.6518,3.6513,3.6535,3.6544,3.6531,3.6583,3.6564,3.6568,3.6568,3.6581,3.6588,3.6594,3.651,3.651,3.651,0,0,3.66,3.6595,3.6611,3.6608,3.6602,3.659,3.6595,3.6584,3.6578,3.6593,3.657,3.6578,3.6587,3.6584,3.6584,3.6631,3.6614,3.6633,3.6664,3.6678,3.6683,3.6689,3.6706,3.6712,3.6636,3.6636,3.6637,0,3.663,3.6642,3.6622,3.6634,3.6635,3.6607,3.6624,3.6622,3.6618,3.6619,3.6605,3.6616,3.6611,3.6631,3.6643,3.6644,3.6648,3.6634,3.6684,3.6689,3.6694,3.671,3.6716,3.6639,3.6639,3.6638,3.6638,0,3.6679,3.6688,3.6702,3.6699,3.6701,3.6715,3.6698,3.6703,3.669,3.668,3.6696,3.6688,3.669,3.6694,3.6681,3.6713,3.6705,3.6688,3.6662,3.6704,3.6718,3.6724,3.6642,3.6641,3.6641,3.664,0,0,3.6751,3.6737,3.6742,3.674,3.6732,3.6738,3.6752,3.6753,3.6758,3.6756,3.6767,3.6776,3.676,3.676,3.6746,3.6758,3.6796,3.6739,3.6739,3.675,3.6831,3.6845,3.6852,3.6784,3.6786,3.6786,3.6832,0,3.6796,3.6818,3.6801,3.6826,3.6833,3.6808,3.682,3.6816,3.6807,3.6813,3.6803,3.681,3.6788,3.6788,3.6799,3.6789,3.6812,3.6786,3.6795,3.6795,3.6797,3.6859,3.6873,3.6916,3.6837,3.6838,3.6839,0,3.6851,3.6852,3.6878,3.6868,3.687,3.6881,3.6882,3.6887,3.6883,3.6875,3.6876,3.6859,3.6872,3.6847,3.6865,3.6847,3.685,3.6846,3.6847,3.6847,3.682,3.6861,3.693,3.6936,3.6848,3.6847,3.6846,0,3.6901,3.6909,3.6925,3.6924,3.6913,3.6921,3.6917,3.6911,3.6913,3.6914,3.6915,3.6917,3.6919,3.6921,3.6906,3.6889,3.6925,3.6899,3.692,3.692,3.6929,3.6928,3.6999,3.6931,3.693,3.693,3.693,0,3.6953,3.697,3.6947,3.6957,3.6976,3.6956,3.6975,3.6968,3.6963,3.6971,3.6949,3.6958,3.6937,3.6944,3.6932,3.6948,3.6949,3.6944,3.694,3.6946,3.6947,3.6947,3.6944,3.6932,3.6932,3.6931,3.6931,0,3.7012,3.6998,3.7014,3.7002,3.6999,3.7013,3.7003,3.7012,3.7002,3.7013,3.7015,3.7,3.7006,3.6991,3.6995,3.6987,3.7011,3.7003,3.7013,3.701,3.7032,3.703,3.7105,3.7114,3.7041,3.7041,3.7042,0,3.7047,3.7059,3.7048,3.7052,3.7049,3.7056,3.7058,3.704,3.7043,3.7039,3.7049,3.7053,3.7056,3.7068,3.7057,3.7061,3.7053,3.7079,3.7053,3.7058,3.7053,3.7053,3.7054,3.7084,3.7085,3.7086,3.7086,0,3.7109,3.7101,3.7105,3.7107,3.711,3.711,3.7109,3.7114,3.7094,3.7099,3.7105,3.7107,3.7112,3.7117,3.7118,3.7114,3.7097,3.7094,3.7099,3.7105,3.711,3.7108,3.7027,3.7093,3.7092,3.7092,3.7091,3.7091,3.7156,3.7166,3.716,3.7166,3.7163,3.7162,3.717,3.7161,3.7166,3.7168,3.7157,3.7166,3.7162,3.7161,3.7159,3.7166,3.7154,3.7162,3.7163,3.7166,3.7169,3.7109,3.7166,3.7166,3.7166,3.7166,3.7165,0,3.7218,3.7213,3.7218,3.7217,3.7221,3.7205,3.7203,3.7207,3.7215,3.7212,3.7216,3.7223,3.7228,3.7218,3.7222,3.7229,3.7222,3.7231,3.723,3.7229,3.718,3.7175,3.7237,3.7237,3.7237,3.7237,3.7237,3.7237,3.725,3.7266,3.7257,3.7272,3.7267,3.7275,3.7276,3.7275,3.7273,3.7282,3.7286,3.7279,3.7274,3.7277,3.7281,3.7278,3.728,3.7292,3.7286,3.724,3.7233,3.7226,3.7222,3.7293,3.7293,3.7336,3.7336,3.7336]}]]